Content
SEND FEEDBACK

Daily
Averages
Monthly
Summary
Thailand

PHUKET, THAILAND


Home > Asia > Thailand
Elevation: 33 feet     Latitude: 08 07N     Longitude: 098 19E

WEATHER
 
SELECT A DAY
Number of Records: 227,464;   Date Range: 7/1/96 - 7/23/14
 
SHARE

PRINT THIS DATA

[ ← Previous Day ]
WEATHER ALMANAC - SEPTEMBER 28, 2013
[ Next Day → ]
[ °C ]   °F
Weather ElementAverageHighLow
Temperature81.1 °F86 °F (9:30 am)75.2 °F (8:30 pm)
Dewpoint74.6 °F77 °F (8:00 am)71.6 °F (8:30 pm)
Humidity80.6 %89 % (4:30 am)70 % (9:00 am)
Barometer29.83 in29.89 in (12:30 am)29.76 in (7:00 pm)
Wind Speed11.6 mph17.3 mph (8:30 am)
Wind Gust23 mph (7:30 am)
Weather ElementAverage
Visibility5.1 mi
Wind DirectionWSW (245.2 °)

Weather ElementTotal
Precipitation---
Cooling Degree Days15.6 (Base 65)
Growing Degree Days30.6 (Base 50)
Averaged from 47 records on September 28, 2013
WEATHER CONDITIONS BREAKOUT
WIND DIRECTION BREAKOUT
WEATHER BY HOUR - SEPTEMBER 28, 2013
[ °C ]   °F
Local TimeTemperatureDewpointHumidityBarometerVisibilityWind DirectionWind SpeedGust SpeedPrecipitationEventsConditions
12:30 AM78.8 °F73.4 °F83 %29.89 in5.6 miVariable2.3 mphMostly Cloudy
1:00 AM82.0 °F76.0 °F77 %29.84 in6.0 miWNW (290°)4.6 mphPartly Cloudy
1:00 AM80.6 °F75.2 °F84 %29.86 in5.6 miVariable4.6 mphMostly Cloudy
1:30 AM80.6 °F75.2 °F84 %29.86 in5.6 miVariable4.6 mphMostly Cloudy
2:00 AM80.6 °F73.4 °F79 %29.86 in5.6 miVariable5.8 mphMostly Cloudy
2:30 AM80.6 °F73.4 °F79 %29.86 in5.6 miWest (270°)11.5 mphMostly Cloudy
3:00 AM80.6 °F73.4 °F79 %29.83 in5.6 miWest (280°)11.5 mphMostly Cloudy
4:00 AM80.6 °F75.2 °F84 %29.83 in1.9 miWest (280°)10.4 mph21.9 mphRainRain
4:30 AM77.0 °F73.4 °F89 %29.83 in5.0 miWest (260°)4.6 mphMostly Cloudy
5:00 AM78.8 °F73.4 °F83 %29.83 in5.0 miWNW (300°)6.9 mphMostly Cloudy
5:30 AM78.8 °F73.4 °F83 %29.83 in5.0 miVariable2.3 mphMostly Cloudy
6:30 AM78.8 °F73.4 °F83 %29.83 in4.3 miWNW (290°)13.8 mphMostly Cloudy
7:00 AM80.6 °F75.2 °F84 %29.86 in1.9 miWest (280°)16.1 mphRainRain
7:30 AM80.6 °F73.4 °F79 %29.86 in4.3 miWSW (250°)9.2 mph23.0 mphRainLight Rain
8:00 AM82.4 °F77.0 °F84 %29.86 in4.3 miWest (270°)13.8 mphRainLight Rain
8:30 AM84.2 °F75.2 °F74 %29.89 in6.2 miWest (270°)17.3 mphMostly Cloudy
9:00 AM84.2 °F73.4 °F70 %29.89 in6.2 miWest (280°)16.1 mphMostly Cloudy
9:30 AM86.0 °F75.2 °F70 %29.89 in6.2 miWest (280°)15.0 mphMostly Cloudy
10:00 AM86.0 °F77.0 °F74 %29.89 in6.2 miWNW (290°)15.0 mphMostly Cloudy
10:30 AM82.4 °F75.2 °F79 %29.89 in5.6 miWNW (290°)16.1 mphMostly Cloudy
11:00 AM82.4 °F75.2 °F79 %29.89 in3.7 miWNW (300°)13.8 mphRainRain
11:30 AM82.4 °F77.0 °F84 %29.86 in5.0 miWNW (290°)13.8 mphMostly Cloudy
12:00 PM82.4 °F77.0 °F84 %29.86 in5.0 miWest (260°)13.8 mphMostly Cloudy
12:30 PM86.0 °F75.2 °F70 %29.83 in6.2 miWest (260°)16.1 mphMostly Cloudy
1:00 PM82.4 °F73.4 °F74 %29.83 in5.0 miWNW (300°)13.8 mphMostly Cloudy
1:30 PM80.6 °F75.2 °F84 %29.83 in5.0 miWest (270°)13.8 mphMostly Cloudy
2:00 PM80.6 °F75.2 °F84 %29.80 in5.0 miWSW (250°)17.3 mphRainLight Rain
2:30 PM80.6 °F73.4 °F79 %29.80 in5.6 miWest (260°)16.1 mphMostly Cloudy
3:00 PM82.4 °F75.2 °F79 %29.77 in5.0 miWNW (290°)15.0 mphRainLight Rain
3:30 PM78.8 °F73.4 °F83 %29.80 in3.7 miWest (270°)16.1 mphRainLight Rain
4:00 PM80.6 °F73.4 °F79 %29.77 in5.0 miWNW (300°)11.5 mphMostly Cloudy
4:30 PM80.6 °F73.4 °F79 %29.77 in6.2 miWSW (250°)11.5 mphMostly Cloudy
5:00 PM80.6 °F75.2 °F84 %29.77 in6.2 miWest (270°)15.0 mphMostly Cloudy
5:30 PM82.4 °F75.2 °F79 %29.77 in6.2 miWest (270°)17.3 mphMostly Cloudy
6:00 PM82.4 °F75.2 °F79 %29.77 in6.2 miWest (270°)16.1 mphMostly Cloudy
6:30 PM82.4 °F75.2 °F79 %29.80 in6.2 miWest (280°)13.8 mphMostly Cloudy
7:00 PM83.0 °F76.0 °F75 %29.76 in6.0 miCalmPartly Cloudy
7:00 PM80.6 °F75.2 °F84 %29.80 in6.2 miWest (270°)15.0 mphMostly Cloudy
7:30 PM82.4 °F75.2 °F79 %29.80 in6.2 miWest (280°)15.0 mphMostly Cloudy
8:00 PM82.4 °F75.2 °F79 %29.80 in6.2 miWest (280°)13.8 mphMostly Cloudy
8:30 PM75.2 °F71.6 °F89 %29.83 in4.3 miNW (310°)11.5 mph23.0 mphRainLight Rain
9:00 PM78.8 °F73.4 °F83 %29.83 in4.3 miWNW (300°)12.7 mphRainLight Rain
9:30 PM78.8 °F73.4 °F83 %29.83 in5.0 miWSW (250°)8.1 mphMostly Cloudy
10:00 PM80.6 °F75.2 °F84 %29.86 in5.0 miWest (260°)6.9 mphMostly Cloudy
10:30 PM80.6 °F75.2 °F84 %29.86 in4.3 miWest (260°)8.1 mphMostly Cloudy
11:00 PM80.6 °F73.4 °F79 %29.86 in4.3 miSW (230°)5.8 mphMostly Cloudy
11:30 PM77.0 °F73.4 °F89 %29.86 in2.5 miWest (270°)11.5 mphRainRain
Hourly data recorded from VTSP, located miles away from Phuket, Thailand







STORIES FROM OUR PARTNERS